Theta_e
291 288 287 287 290 291 289 290 292 289 289 286 286 286 285 284 285 286 286 288 288 289 288 290 289 287 289 290 288 289 289 288 287 287 287 287 287 287 287 287 287 287 287 289 289 288 289 289 289 290 290 291 291 291 292 292 292 293 293 294 294 295 296 297 297 297 297 297 296 295 294 293 293 293 293 292 292 292 292 293 293 293 294 294 295 296
291 287 286 289 291 290 290 289 289 288 287 287 286 285 285 284 286 288 289 288 288 289 285 284 286 288 289 289 288 288 288 287 287 287 287 287 287 287 286 286 286 287 288 288 288 287 288 288 289 289 289 290 289 290 291 291 291 292 292 292 293 294 295 295 296 296 295 295 294 293 292 291 291 291 290 289 289 289 290 290 291 291 292 292 293 294
287 286 288 290 289 287 286 287 286 288 288 286 285 284 283 285 285 286 287 287 287 288 286 285 286 288 290 288 286 287 286 287 287 287 287 287 286 286 286 286 286 286 286 286 286 287 287 287 287 288 288 288 289 289 289 290 291 291 291 292 292 293 294 295 295 295 294 294 295 294 292 291 289 290 290 289 289 289 288 289 289 289 290 290 291 292
287 285 289 291 288 289 287 286 285 285 285 285 283 283 284 285 286 283 285 286 289 287 286 284 286 288 289 285 286 286 286 286 286 286 286 287 286 285 285 285 285 285 285 285 285 285 286 286 286 287 287 287 288 288 288 289 290 290 291 291 291 292 293 294 294 294 294 293 292 292 292 291 290 288 289 289 289 289 288 288 289 289 289 289 289 290
290 290 290 289 288 289 289 286 286 285 285 284 285 284 284 285 285 286 286 286 285 286 285 286 285 285 287 287 285 286 287 286 286 286 285 286 286 286 286 286 285 284 284 284 284 285 285 285 285 285 286 286 286 286 286 287 288 288 289 290 290 291 291 292 292 293 294 293 292 291 290 290 289 289 288 287 287 287 287 287 287 287 288 288 288 289
288 290 288 287 286 287 287 286 286 287 284 282 283 287 287 286 286 284 285 286 284 283 284 286 282 279 280 281 284 285 285 285 285 284 284 285 285 285 285 284 285 285 285 284 283 284 284 284 284 285 285 285 285 285 285 286 287 287 288 288 289 289 289 289 290 290 291 290 289 289 287 286 285 285 285 284 284 285 285 285 287 287 288 288 288 288
289 289 290 291 287 285 286 286 285 288 284 284 287 286 288 287 285 285 284 286 281 281 286 283 283 278 281 282 283 283 283 284 284 284 284 285 285 285 284 284 284 284 284 284 284 284 283 284 284 284 284 284 284 284 285 285 285 286 287 287 287 287 288 288 288 289 288 287 287 286 286 286 285 284 284 285 286 286 286 287 286 287 287 287 287 287
288 288 287 287 287 286 284 284 285 288 285 283 285 284 285 285 285 284 284 285 283 282 284 283 283 281 280 283 282 283 283 283 283 284 284 284 284 284 284 284 284 284 284 283 283 283 283 283 283 283 283 283 284 284 284 285 285 285 285 285 286 286 287 287 287 287 288 287 286 286 286 286 285 285 284 285 285 286 286 286 286 286 286 287 287 287
288 287 286 286 286 285 286 286 286 288 287 284 286 284 284 286 285 283 285 283 282 283 281 281 284 282 278 280 282 283 283 283 282 283 284 284 285 284 284 284 284 283 283 283 283 282 282 282 283 283 283 283 284 284 284 284 284 285 285 285 285 285 285 286 287 286 287 287 286 286 286 285 285 285 285 286 286 285 286 285 285 285 286 286 286 286
287 288 288 289 287 286 286 284 286 289 288 286 284 283 282 282 282 283 282 283 280 280 275 281 284 279 279 281 282 283 282 283 283 283 284 285 285 284 284 284 283 283 283 283 282 282 282 282 282 282 283 283 283 283 284 283 284 284 285 285 284 284 285 285 285 286 286 286 286 285 285 284 284 285 285 285 285 285 285 285 285 285 285 285 285 286
287 289 289 288 288 287 284 284 285 287 286 284 285 285 284 281 280 279 279 277 277 274 277 282 283 283 278 282 283 282 284 284 283 283 284 285 284 284 284 283 283 283 282 282 282 282 282 282 282 282 282 282 283 283 283 283 283 284 284 284 284 284 284 285 285 285 285 286 286 285 285 285 284 285 285 285 284 285 285 284 284 284 285 285 285 285
287 287 288 287 288 286 286 286 284 283 283 285 287 282 285 283 278 277 270 274 273 272 275 277 279 282 277 279 281 283 283 284 285 284 284 285 285 285 284 283 283 282 282 282 282 281 281 281 281 281 282 282 282 282 283 283 283 284 284 284 284 284 284 285 285 285 285 285 285 285 285 285 285 285 284 284 284 284 284 284 284 284 284 284 284 284
285 287 285 288 289 290 285 285 285 284 286 285 283 284 277 274 272 273 269 274 272 273 278 278 280 280 281 283 283 282 285 284 285 286 286 286 286 285 284 283 283 282 282 282 282 281 281 281 281 280 281 281 281 282 282 282 283 283 283 284 284 283 284 284 284 285 285 285 285 285 285 285 285 285 284 284 284 284 284 284 284 284 283 283 283 283
283 283 286 288 288 288 289 286 284 283 284 284 285 280 274 268 262 263 266 264 269 273 276 279 279 279 281 282 284 283 284 283 284 283 285 287 287 285 284 283 282 282 282 282 282 281 281 281 281 281 280 281 281 281 282 283 283 283 283 283 283 283 283 284 284 284 284 284 284 284 285 285 285 285 285 285 284 284 284 284 283 283 283 283 283 283
276 280 284 287 286 288 290 290 287 282 284 285 283 285 282 272 265 268 264 273 275 274 274 274 275 272 276 283 281 281 281 281 282 282 283 286 286 286 284 283 282 282 281 281 281 281 281 281 281 281 281 281 281 281 282 282 282 282 283 283 283 283 283 283 283 284 284 284 284 285 285 285 285 285 284 284 284 284 283 283 283 283 283 282 283 283
282 280 286 286 287 287 288 287 285 285 285 282 282 283 280 281 279 278 273 268 268 270 271 273 277 278 282 280 280 280 281 281 282 282 284 284 284 283 282 282 282 282 282 281 281 281 281 281 281 281 280 281 281 281 281 282 282 282 282 282 283 283 283 283 283 283 283 283 284 284 284 284 284 284 283 283 283 283 283 282 282 282 282 282 282 283
281 281 284 286 285 287 287 286 288 287 281 283 284 281 282 285 285 280 278 277 276 274 276 271 278 281 281 282 280 280 282 281 282 282 283 283 283 282 283 282 282 282 281 281 281 281 281 281 281 281 280 280 281 281 281 282 282 282 282 282 282 282 283 283 283 283 283 283 283 282 282 283 282 282 282 282 282 282 282 282 282 282 282 282 282 282
280 279 283 284 286 286 285 285 285 284 286 285 280 282 285 287 287 285 279 279 276 276 278 274 276 279 279 279 281 280 281 281 281 281 282 282 282 282 283 283 282 282 282 282 282 282 281 281 281 281 281 280 281 281 281 282 282 282 283 283 283 283 283 283 283 283 283 283 283 282 282 282 282 282 282 282 281 282 282 282 281 282 281 281 281 281
284 281 283 282 284 286 284 286 286 286 286 283 283 286 286 281 281 283 279 275 276 276 277 277 277 278 280 283 280 282 282 283 281 281 281 282 281 283 284 283 282 282 281 281 281 281 281 281 281 281 281 281 281 281 281 282 282 282 282 282 283 283 283 283 284 284 284 284 283 283 282 282 282 282 281 281 281 281 281 280 281 280 280 280 281 280
287 281 282 284 284 286 285 285 280 283 287 286 287 284 284 283 281 280 283 280 280 277 277 276 278 279 280 281 282 284 284 284 281 280 281 283 283 284 285 284 283 282 281 281 281 281 281 281 281 281 280 280 281 281 282 282 282 282 282 283 283 283 283 283 283 284 283 283 282 282 281 281 281 281 281 280 280 280 280 280 280 279 279 279 279 278
286 285 276 282 284 284 282 284 282 284 282 283 283 280 282 279 283 282 280 279 278 271 274 275 276 281 281 281 283 284 284 284 283 282 283 283 284 285 286 285 284 282 281 281 281 281 281 281 281 281 281 281 282 282 282 282 282 283 283 283 284 283 283 283 283 283 283 282 281 281 280 280 280 280 280 279 279 279 279 279 279 278 278 278 277 277
284 284 280 281 282 281 281 284 285 285 287 284 284 282 284 279 278 277 278 281 276 278 275 274 276 283 283 281 282 282 281 284 284 285 284 284 285 285 285 285 284 282 281 281 281 281 281 281 281 281 281 281 282 282 282 283 282 283 284 284 283 283 283 283 283 282 281 281 280 279 279 279 279 279 279 278 278 278 278 277 277 277 276 275 275 275
287 283 279 277 280 283 284 283 281 282 284 282 286 283 284 283 282 278 276 278 271 276 274 275 273 281 283 281 280 280 279 280 283 283 283 283 283 284 284 283 282 282 282 281 281 281 281 281 281 281 281 281 282 282 282 282 283 284 283 283 283 283 282 282 282 281 280 280 279 278 278 278 278 278 277 277 277 276 276 275 275 275 274 274 273 274
291 282 278 280 282 281 284 283 283 282 284 286 284 280 282 282 283 282 282 278 277 272 273 269 273 280 283 280 277 276 276 277 279 280 282 282 283 283 283 282 282 282 282 282 281 282 282 281 281 281 281 281 281 282 282 283 283 283 283 282 281 281 280 280 280 279 279 278 278 277 277 277 277 276 276 275 275 274 274 274 273 273 273 272 272 272
285 285 283 280 278 278 279 283 281 281 282 276 280 280 281 282 282 280 279 276 277 278 279 275 275 281 284 282 281 280 278 278 280 281 283 283 283 284 283 283 283 284 284 282 281 281 281 280 280 281 281 281 282 282 282 282 282 282 281 281 281 280 280 279 279 279 278 277 276 276 276 275 275 274 274 274 274 273 272 272 272 272 271 271 271 271
287 284 283 279 277 274 272 271 268 272 281 279 277 276 281 284 282 280 278 274 277 281 277 275 279 285 283 281 281 280 277 281 281 282 283 284 284 284 285 285 285 285 284 282 281 281 280 281 281 281 281 282 282 282 283 283 282 281 281 280 280 279 279 278 278 278 277 276 275 275 274 274 274 273 273 273 272 271 271 271 270 270 270 270 269 269
284 285 286 285 282 281 282 278 279 281 280 279 279 281 283 282 283 282 280 277 278 279 279 282 283 283 285 284 282 280 278 282 282 281 281 283 284 285 285 286 286 285 284 282 281 281 281 281 281 281 281 282 282 283 283 282 281 280 279 279 279 279 278 278 277 276 276 275 274 273 273 273 273 272 272 271 271 270 270 269 269 269 269 269 268 268
283 283 284 284 284 285 286 284 282 284 284 282 280 281 281 281 279 280 280 279 282 278 277 285 285 282 284 285 282 282 282 281 281 283 284 284 284 285 286 286 286 284 283 282 282 281 281 281 281 281 281 281 282 283 282 281 280 279 279 278 278 277 277 276 275 275 274 274 273 272 272 272 272 271 271 270 270 269 269 269 268 268 268 268 267 267
284 283 284 283 283 285 285 284 282 281 283 284 283 283 282 282 279 278 280 283 282 280 278 283 283 281 284 287 285 284 284 284 284 284 285 285 286 285 285 284 283 283 283 282 282 282 281 281 281 281 282 282 282 281 281 280 279 278 278 277 276 276 275 275 274 273 273 273 272 272 272 272 271 271 270 269 269 268 267 267 267 267 267 266 266 266
284 283 285 283 281 283 283 282 282 282 280 281 281 282 283 283 283 282 282 284 283 282 284 284 285 284 286 285 283 285 285 284 284 285 284 284 284 284 283 283 283 283 282 282 282 282 282 282 282 282 282 282 282 281 280 279 278 277 276 275 275 274 274 274 273 272 272 272 271 271 271 270 270 269 269 268 267 266 266 266 266 265 265 265 265 265
286 282 285 280 280 281 282 281 280 280 278 279 282 282 283 283 281 281 283 283 282 282 283 283 281 282 284 282 283 283 280 282 282 282 283 283 283 283 282 283 283 282 282 283 283 283 283 283 283 282 282 282 281 280 279 278 277 276 275 274 274 273 273 273 272 272 271 271 271 271 270 269 268 268 267 266 266 265 265 265 264 264 264 264 264 264
285 280 278 277 278 279 279 277 277 277 278 278 279 282 283 282 280 282 280 282 281 280 282 281 280 281 284 279 280 281 280 282 283 283 282 282 282 282 282 282 282 282 282 283 283 283 283 282 282 281 281 281 280 279 279 278 276 275 274 273 273 273 272 272 271 271 270 270 270 269 268 267 267 266 266 265 265 264 264 263 263 263 263 263 263 263
282 278 277 275 278 277 281 277 277 277 277 276 278 281 282 282 283 283 282 280 283 284 279 278 280 285 281 280 281 281 280 281 281 281 282 281 281 281 281 281 281 282 283 283 283 283 283 282 282 281 281 280 279 279 279 278 275 274 274 272 273 272 271 270 270 270 269 269 268 267 267 266 266 265 264 264 263 263 263 262 262 262 262 262 262 263
278 280 278 280 277 277 273 273 277 276 271 273 283 285 284 282 282 280 281 282 282 283 281 281 281 276 275 278 280 280 280 280 281 281 281 282 280 279 279 280 281 282 282 282 283 283 283 282 281 281 281 280 280 280 279 277 276 274 273 272 271 270 270 269 269 268 268 267 267 266 266 265 264 264 264 263 263 262 262 262 261 262 262 262 262 262
280 281 280 281 277 274 274 276 273 270 272 283 278 277 277 281 283 282 283 283 278 280 280 280 279 276 279 280 282 282 280 278 276 277 277 277 279 280 279 278 279 279 280 281 281 281 281 281 280 279 279 279 279 278 276 275 274 272 271 270 269 269 268 268 268 267 267 266 266 265 265 265 264 263 263 262 262 261 261 261 261 261 262 261 261 261
281 282 281 280 279 275 273 275 270 271 279 278 278 276 276 276 277 277 275 274 277 281 281 280 282 283 281 280 279 277 278 277 275 275 276 277 277 279 279 279 279 279 279 280 280 280 280 280 280 279 279 279 277 276 275 273 271 270 270 269 269 268 267 267 266 267 266 265 265 265 265 263 263 262 262 262 261 260 261 261 261 260 261 261 261 261
284 282 282 278 282 274 275 273 275 280 279 280 277 277 277 277 275 275 270 274 277 278 279 280 281 281 280 278 276 274 273 274 276 278 276 277 278 278 279 280 280 279 279 279 280 280 280 280 280 279 278 276 276 274 273 271 270 270 268 267 267 267 266 266 265 266 265 264 264 264 264 264 262 262 261 261 260 259 259 260 260 260 260 259 260 260
283 282 283 280 277 281 274 273 272 272 270 277 281 277 276 277 276 275 274 271 273 272 277 279 278 280 276 275 273 273 273 274 274 277 276 277 277 277 277 277 277 277 277 278 277 277 278 277 277 276 276 274 274 273 271 270 269 268 268 267 266 266 266 265 265 265 264 264 264 264 263 263 262 261 260 260 259 259 260 260 260 259 259 259 259 259
279 282 281 281 277 278 275 273 272 271 274 278 277 273 274 273 275 271 270 269 270 270 276 277 277 276 276 276 272 273 272 267 271 276 277 277 276 276 276 276 276 276 276 276 277 277 276 276 276 274 274 273 272 270 269 269 268 268 267 266 265 265 265 265 265 264 264 264 264 263 262 262 261 261 259 259 259 258 258 258 258 259 259 258 258 258
276 277 278 275 275 278 276 274 271 276 271 273 271 274 275 274 273 273 264 262 269 268 270 275 277 278 277 274 273 273 273 266 272 276 276 276 277 276 276 276 275 275 275 275 276 277 276 274 272 272 272 272 272 269 267 267 268 268 267 265 265 265 265 265 264 264 264 264 263 262 261 261 260 260 259 259 258 258 258 258 257 257 258 258 258 257
273 273 277 273 277 277 278 274 277 276 281 273 273 273 273 272 271 264 266 270 270 270 272 275 277 278 276 273 274 272 275 278 277 276 275 275 275 275 275 276 275 276 275 275 275 276 273 273 273 273 272 272 270 267 267 267 268 267 266 265 264 265 265 264 264 263 263 263 261 260 260 259 259 258 257 258 257 257 257 257 258 257 256 256 256 256
268 271 272 276 273 274 275 273 274 277 281 276 275 276 275 274 264 268 273 271 273 273 272 275 276 276 275 275 275 277 278 278 276 274 274 274 274 274 275 274 273 273 273 274 275 273 272 272 271 270 270 269 267 266 266 267 268 267 265 264 265 265 264 263 263 262 261 261 260 259 258 257 256 256 254 254 255 254 255 256 255 256 255 256 256 255
269 269 267 272 274 273 275 272 272 267 275 276 276 274 275 270 270 273 273 273 272 272 273 273 275 275 275 275 276 277 277 275 275 275 274 273 273 274 274 274 274 274 273 272 272 272 272 271 271 270 270 267 266 266 266 266 267 265 264 265 265 263 263 263 262 261 260 259 257 257 256 254 253 254 253 254 254 253 253 254 254 254 254 254 254 254
269 262 258 264 274 268 271 269 270 276 277 277 279 274 272 278 277 275 276 274 273 272 273 274 274 275 276 277 276 276 276 275 273 272 272 272 272 272 272 273 273 273 272 272 273 272 271 272 271 270 267 265 265 265 266 266 267 264 264 265 263 262 262 261 261 260 258 256 255 254 253 253 253 252 252 253 254 253 253 253 253 253 254 253 253 254
273 270 268 268 269 269 268 270 275 276 278 278 280 279 279 281 278 274 275 277 275 274 274 274 276 276 276 276 277 276 275 274 275 274 274 275 274 273 273 274 274 274 274 273 273 271 271 272 270 268 265 264 264 264 264 265 266 263 264 264 262 262 260 259 258 257 254 253 252 252 252 252 252 252 251 251 252 252 253 253 252 253 252 253 253 254
272 273 268 270 270 272 272 272 273 274 274 277 278 277 277 278 277 274 275 276 275 276 276 276 277 276 276 275 275 273 274 274 274 274 273 273 272 272 272 272 272 271 271 270 269 269 269 268 266 266 265 263 263 263 263 262 264 264 264 262 261 261 260 258 256 255 255 252 252 251 252 252 251 251 250 251 252 252 253 253 253 253 254 253 253 253
271 270 270 270 269 268 265 271 273 275 273 275 278 279 277 276 276 276 275 276 278 276 275 276 277 276 275 274 275 276 276 275 274 275 274 273 273 272 272 273 273 273 272 271 272 269 268 266 266 265 264 263 262 262 262 261 262 263 261 260 261 260 258 256 256 256 255 253 253 251 251 251 252 252 251 250 251 252 253 253 253 253 253 253 253 253
270 273 271 272 269 269 269 270 271 273 272 273 275 276 278 279 278 276 277 278 278 276 275 276 274 272 273 272 275 275 276 276 275 275 274 274 274 274 273 272 273 272 272 272 270 268 268 268 268 266 265 265 264 262 261 260 260 259 259 260 260 257 256 256 256 256 254 253 252 252 251 251 254 254 253 252 252 253 253 253 253 253 253 253 254 253
272 273 263 267 268 269 271 273 272 272 274 275 274 275 277 278 278 277 277 278 276 275 275 273 274 275 274 276 275 275 274 275 275 275 275 275 274 273 273 273 273 273 273 271 268 267 269 269 268 267 266 266 264 262 261 260 259 258 259 260 257 256 256 256 256 254 252 251 250 252 253 253 252 253 252 252 252 252 254 253 254 254 255 256 256 256
271 271 269 269 264 265 268 274 274 267 269 275 276 277 277 278 278 278 276 274 275 276 275 275 275 274 274 275 275 274 274 276 275 274 274 275 275 274 274 273 273 272 271 271 269 268 268 268 269 268 266 266 263 261 261 259 259 258 259 258 256 256 256 255 254 253 253 251 251 251 251 252 251 251 252 252 252 252 252 256 260 260 258 258 262 266
273 275 272 270 269 268 274 274 276 277 276 277 278 277 277 278 276 276 276 277 277 277 277 276 275 274 273 273 273 274 274 276 276 275 274 274 275 275 275 274 273 271 271 269 267 265 266 267 267 267 266 265 262 261 260 259 258 257 258 257 256 256 256 255 255 254 253 252 252 253 253 252 251 251 250 251 252 251 252 253 255 260 263 265 265 266
Wind_Speed
1 5 6 8 9 9 5 10 9 1 2 1 1 1 4 4 6 6 3 7 0 2 7 10 7 5 9 9 4 2 2 5 4 4 4 4 4 4 5 5 5 7 6 5 5 7 8 8 8 8 7 7 6 9 8 9 10 10 7 9 11 7 7 8 7 8 7 7 7 10 12 10 9 9 10 11 10 11 10 11 12 11 10 10 11 10
3 5 8 8 7 5 7 5 1 1 0 2 2 2 6 2 11 4 2 1 1 2 4 5 3 9 10 7 3 3 2 3 3 4 4 4 4 4 5 5 5 3 3 6 8 9 8 8 10 8 7 8 10 9 9 10 8 8 9 11 7 7 9 9 8 7 10 8 8 10 8 9 8 9 10 10 10 9 9 11 11 11 11 12 11 11
1 8 7 10 3 4 3 4 3 6 6 1 4 3 3 9 4 6 6 2 1 3 7 3 3 9 10 3 3 3 3 1 1 2 4 5 5 4 4 5 5 5 5 6 6 7 7 9 9 7 7 7 7 7 8 6 8 10 10 8 8 8 8 8 8 8 9 7 7 9 7 8 10 8 8 8 8 8 11 11 11 11 10 11 11 11
4 5 14 4 5 3 0 3 3 1 1 3 2 2 9 2 2 6 2 2 0 2 3 1 4 8 9 3 4 4 2 2 3 5 5 4 5 5 4 3 4 5 4 6 6 7 7 6 6 6 7 7 6 7 8 8 9 7 8 9 9 9 8 8 8 10 9 11 10 10 10 9 9 8 7 9 8 10 12 13 10 11 10 11 11 11
9 3 0 4 4 6 5 3 4 4 6 1 5 5 6 2 5 8 5 2 1 1 1 2 5 7 8 5 1 4 2 4 3 5 6 5 5 4 4 5 4 4 3 4 5 5 5 6 7 6 6 5 7 7 8 7 7 6 9 9 9 8 9 7 7 6 6 7 8 7 8 7 8 7 8 9 11 10 9 9 12 11 10 11 11 10
8 6 3 4 2 2 3 3 7 6 4 2 6 12 8 6 7 5 3 3 6 3 2 0 4 3 3 2 0 1 1 2 1 5 4 4 4 4 5 4 3 4 4 3 3 3 3 4 4 5 6 7 7 8 7 6 6 7 7 8 8 8 8 8 8 6 5 6 6 5 7 9 9 10 9 10 8 8 10 10 7 10 11 11 11 11
6 1 4 5 4 3 4 5 3 7 4 1 6 7 10 8 5 2 1 2 2 1 1 2 0 6 6 4 1 1 2 2 2 3 2 3 3 3 3 3 3 3 4 4 4 4 4 4 4 5 6 6 7 7 5 6 7 8 8 8 8 8 7 7 8 7 6 9 9 11 11 9 9 10 7 5 5 6 6 7 9 8 9 10 11 10
2 1 4 3 4 5 4 6 5 9 7 4 2 3 3 3 4 5 5 6 4 1 2 1 2 5 4 5 1 3 4 4 3 3 3 3 4 4 3 3 3 3 2 3 3 3 3 3 4 6 5 5 6 5 5 7 7 9 9 9 9 8 8 8 7 9 7 9 8 10 10 9 9 9 8 6 6 6 6 8 8 8 8 9 10 9
4 3 3 4 2 4 6 5 5 9 7 3 1 4 5 7 6 5 6 5 1 1 6 4 1 2 4 5 2 1 5 6 7 7 6 6 6 5 4 4 4 3 2 2 3 2 3 3 5 5 6 6 6 6 7 7 7 8 8 9 9 10 9 9 10 9 9 8 8 8 8 11 8 8 7 5 6 7 6 9 7 8 7 8 8 9
2 2 6 8 7 6 4 2 7 10 5 2 5 7 7 7 6 4 5 5 1 1 5 5 3 3 6 4 3 1 4 9 8 9 9 8 7 6 6 5 5 4 3 2 2 1 2 2 4 4 5 7 6 5 6 7 7 8 8 10 11 12 9 8 9 9 10 9 7 9 9 11 8 6 6 5 6 7 6 9 8 7 7 7 7 8
1 4 4 4 5 3 4 3 2 0 1 6 3 6 4 7 4 3 6 3 2 1 7 8 5 5 5 4 7 6 7 4 6 4 5 6 7 7 6 7 6 5 4 4 3 2 2 2 4 4 6 5 6 5 6 7 8 8 8 9 13 10 8 8 9 10 11 9 7 8 9 10 10 7 6 7 7 6 7 8 7 6 6 6 6 6
1 1 0 2 4 4 3 4 3 2 2 3 1 3 2 1 5 3 3 4 1 5 5 3 2 1 6 5 5 7 1 5 11 12 14 13 12 10 8 7 7 6 5 5 4 4 5 5 5 5 6 6 5 6 7 7 7 8 8 9 14 11 10 9 9 10 9 7 8 8 9 10 8 8 7 9 8 6 7 6 6 4 5 6 6 7
3 7 2 2 3 7 3 7 3 3 1 2 4 3 4 3 5 2 2 2 4 4 0 4 1 1 9 6 4 4 9 7 7 4 13 15 12 10 9 8 6 6 6 5 5 5 5 6 6 6 6 6 6 7 7 7 7 8 8 10 15 11 9 9 8 10 9 9 8 8 9 9 7 8 8 7 6 4 4 4 5 5 6 5 6 6
5 1 1 2 2 4 6 6 3 1 1 4 5 4 5 1 1 2 5 1 5 4 4 1 1 3 2 7 5 4 2 3 3 5 4 11 14 13 11 9 8 7 7 6 6 5 6 6 5 5 6 6 6 6 7 6 7 7 8 9 14 10 8 8 9 9 9 8 7 6 7 6 6 6 5 5 5 4 4 3 4 5 5 5 6 6
0 2 3 6 3 2 6 4 8 5 8 7 2 6 6 7 4 3 3 3 3 3 2 4 1 5 3 3 1 5 5 6 6 6 6 5 7 7 7 7 8 7 7 6 6 6 7 6 6 7 6 6 6 7 7 6 6 7 8 9 11 11 8 8 8 7 8 6 6 5 5 5 4 5 4 4 4 4 4 4 5 5 4 5 5 6
3 4 2 2 1 1 8 0 4 6 5 0 2 4 5 5 6 3 3 2 1 2 3 1 5 4 4 1 4 3 3 3 3 4 4 7 7 8 7 9 9 8 8 7 7 7 7 7 7 6 6 6 6 7 6 7 6 7 8 8 9 10 8 8 8 6 6 6 4 5 6 5 5 4 4 4 4 4 4 5 5 5 5 5 4 4
2 2 1 3 2 1 2 2 0 2 4 4 4 4 4 2 4 2 2 2 1 2 8 3 6 5 3 1 3 5 1 3 2 3 6 7 8 8 9 9 9 8 8 8 8 8 8 7 6 6 6 6 7 7 7 7 7 9 9 9 9 8 7 7 7 6 6 5 6 5 5 5 5 5 6 5 5 5 5 5 5 5 5 4 5 5
6 3 1 2 2 1 1 1 2 4 3 8 2 5 2 2 2 3 3 1 1 3 6 4 6 4 1 7 1 3 2 3 1 4 6 7 8 11 12 11 11 11 10 9 8 7 8 7 8 7 6 7 8 8 8 8 7 7 7 8 9 8 8 6 5 5 5 5 5 5 5 5 5 6 7 7 8 7 8 8 7 7 7 8 7 6
4 1 1 1 0 2 1 1 6 2 3 3 3 2 1 1 1 2 4 3 3 5 5 4 3 6 7 7 1 6 7 9 7 6 7 11 12 14 13 13 10 9 9 10 10 8 8 8 8 8 8 8 7 8 8 8 7 6 6 6 7 9 7 7 5 5 4 4 4 4 6 8 8 7 7 6 6 6 6 6 5 5 5 4 6 6
0 2 2 0 2 1 0 3 5 2 2 2 1 3 0 2 1 4 5 2 2 7 6 7 5 11 6 6 11 10 13 11 9 9 13 16 18 17 16 14 14 13 12 10 10 9 9 9 9 10 10 10 10 9 8 8 6 7 6 7 6 5 6 6 6 5 6 4 6 6 7 7 7 6 6 5 5 5 6 6 6 6 5 6 5 5
2 2 4 1 2 1 3 3 6 9 6 2 2 1 1 1 1 3 2 3 4 3 3 6 12 8 4 6 9 10 9 12 16 16 15 15 16 16 16 15 14 13 11 11 11 11 10 9 9 8 8 8 7 7 7 7 8 7 5 6 6 8 7 7 6 6 5 5 6 7 7 6 5 6 5 6 6 7 7 6 5 4 3 3 4 3
2 1 6 0 1 4 5 1 1 5 7 8 8 7 8 5 1 1 7 2 1 3 5 3 14 11 4 3 5 4 3 9 15 14 14 15 15 14 12 10 9 9 8 7 8 7 9 9 9 8 7 6 7 7 8 7 6 7 7 7 7 6 6 7 5 6 6 5 5 7 6 6 6 5 6 7 6 6 5 4 3 3 3 4 3 4
2 2 4 3 6 7 2 2 3 2 0 2 6 5 6 3 4 3 7 6 2 4 1 2 2 15 1 3 2 3 3 5 5 5 8 5 4 4 2 1 2 4 6 6 6 6 7 7 9 10 11 11 10 8 8 7 7 7 8 7 6 7 5 6 7 6 6 6 7 7 6 6 6 6 6 5 4 5 4 3 3 3 3 4 4 5
6 2 1 3 1 2 2 2 1 1 1 1 0 3 3 5 7 8 6 5 4 1 2 2 3 11 2 1 2 3 4 4 5 5 7 3 4 6 8 7 7 7 8 8 7 8 9 9 8 8 9 9 9 9 8 7 7 6 6 7 7 8 7 7 6 6 7 7 7 7 7 7 5 5 4 4 4 5 4 3 3 4 4 4 4 4
2 2 5 1 3 3 5 3 2 3 3 1 2 2 2 1 2 1 3 1 2 7 8 6 13 13 0 1 1 2 2 3 6 6 8 8 7 9 11 11 11 12 12 11 11 10 9 9 10 11 11 10 9 7 7 8 7 7 7 7 7 6 6 6 5 7 6 7 8 6 6 5 4 4 4 4 4 4 4 3 3 3 3 3 3 4
3 4 6 4 6 5 3 3 3 3 5 2 1 0 3 7 5 2 4 2 7 6 6 4 13 10 1 1 2 1 2 3 5 5 5 7 8 9 10 11 13 14 13 12 11 12 14 13 12 11 9 8 8 8 8 7 7 6 6 6 5 7 6 5 5 6 7 6 7 5 5 5 4 4 4 4 4 4 3 3 3 3 3 4 4 4
3 1 5 7 8 10 9 2 2 4 3 3 3 4 7 5 7 5 0 3 11 4 7 12 16 10 13 3 2 3 4 6 5 3 6 7 6 7 8 10 11 11 11 14 14 13 11 12 14 10 10 10 9 9 8 8 7 8 8 7 6 6 6 5 6 6 6 6 5 5 5 5 4 4 4 4 4 3 3 3 4 4 5 5 5 5
2 2 8 7 9 12 9 6 5 5 7 4 5 7 7 7 6 9 9 12 4 2 13 15 10 9 13 9 5 6 8 5 5 6 7 6 8 11 10 9 6 6 7 9 10 13 16 13 10 12 13 12 11 8 7 7 7 10 9 9 6 5 5 5 6 6 6 5 4 4 5 5 5 4 4 4 3 3 4 4 5 5 5 5 6 6
5 6 6 8 9 12 9 9 4 5 7 8 9 11 13 11 6 10 8 11 8 10 18 15 6 6 10 10 7 9 6 4 5 7 9 7 3 3 4 7 11 13 13 15 15 13 13 13 13 13 12 12 11 10 9 8 8 7 7 7 7 6 7 6 7 6 5 5 5 5 5 5 4 4 4 4 5 5 5 5 5 5 5 6 6 5
2 5 6 5 6 8 10 6 3 6 4 4 8 11 15 16 14 9 12 16 15 16 16 17 15 16 14 5 5 8 7 5 3 2 0 2 6 7 6 8 11 12 12 13 12 12 12 12 12 14 14 13 13 11 11 10 10 10 10 9 7 7 6 6 6 6 6 5 6 5 5 4 4 4 4 4 5 5 4 4 5 5 5 6 5 5
3 4 5 2 4 9 9 2 4 5 4 6 10 13 17 14 5 8 15 15 11 12 15 13 12 18 8 7 7 3 0 2 1 3 8 6 4 7 9 11 10 9 9 9 9 11 12 11 11 11 12 13 14 14 12 11 10 9 9 8 8 7 6 6 6 5 5 6 5 4 4 4 4 4 5 4 4 4 5 5 4 4 5 5 5 6
3 4 3 2 4 8 4 4 4 3 1 4 12 20 21 13 12 14 14 10 10 13 13 10 13 15 7 4 3 4 3 4 8 8 6 6 8 8 10 9 8 8 9 10 10 10 10 12 12 14 15 14 13 12 12 11 11 11 11 7 7 6 6 6 6 6 6 5 4 4 4 4 5 5 4 4 5 5 4 4 4 4 5 5 5 5
5 4 3 2 6 9 4 6 5 3 1 7 18 25 15 13 14 11 7 5 12 12 10 11 15 9 3 6 5 5 6 8 7 6 8 7 7 8 9 8 8 9 10 11 11 12 13 14 13 13 13 11 11 12 13 13 12 12 10 9 7 7 7 7 6 6 5 4 4 4 4 4 5 5 4 3 3 3 3 4 4 4 5 5 5 5
3 7 4 4 5 4 1 3 4 5 9 17 7 2 10 15 15 15 15 16 14 10 6 5 6 1 3 5 8 7 9 8 8 7 3 4 5 6 6 6 8 8 8 8 10 12 13 11 10 11 11 11 12 11 10 11 11 9 8 8 8 9 7 7 6 5 5 4 4 4 4 5 4 3 3 3 3 3 3 4 4 3 3 3 4 4
7 6 5 3 3 4 4 5 2 12 17 7 3 2 2 4 8 14 16 10 0 5 6 7 4 5 7 9 10 7 3 3 3 4 3 5 4 5 7 8 8 9 10 10 9 9 10 10 9 8 9 10 11 10 11 9 9 11 10 10 10 8 9 7 6 6 5 4 4 4 4 5 4 3 3 3 3 3 3 3 3 3 3 3 4 5
6 8 3 3 3 3 3 7 10 11 2 3 3 1 2 4 1 1 5 3 6 8 10 10 12 9 9 10 5 1 2 2 3 4 7 7 7 7 7 8 9 10 11 10 11 10 10 11 13 15 14 9 10 9 10 11 9 11 10 8 10 9 8 8 7 6 4 4 4 4 5 5 3 3 3 3 2 3 3 2 2 3 3 3 3 3
7 3 6 7 5 9 5 10 16 4 8 7 2 2 6 5 5 6 5 5 10 9 9 7 10 11 9 4 2 1 1 1 4 9 5 9 9 8 10 10 8 5 4 3 5 7 7 8 8 7 7 9 10 11 10 10 11 11 10 9 8 9 8 7 7 7 6 5 5 5 5 4 3 3 2 2 2 2 2 3 3 3 2 3 4 4
4 10 6 8 6 9 8 7 4 3 11 9 4 1 3 2 5 3 5 5 5 4 5 8 8 12 5 2 2 3 2 2 7 10 4 9 8 8 6 5 2 1 2 2 2 3 5 5 6 8 10 11 10 9 10 11 11 11 11 10 9 9 8 7 7 7 6 6 5 5 5 4 4 4 2 1 1 1 2 1 2 2 1 3 4 5
3 0 1 10 4 6 7 8 8 8 7 4 3 1 2 2 7 4 2 8 4 6 10 9 8 6 6 6 4 4 3 2 8 9 7 6 5 6 6 5 4 4 4 6 7 7 7 7 9 9 9 11 12 10 10 11 12 11 11 10 9 8 9 8 8 8 8 6 6 5 5 4 3 3 2 1 1 1 2 2 2 2 2 3 3 5
3 2 4 4 7 9 7 8 9 3 4 2 3 2 3 3 2 3 5 8 2 5 4 5 9 9 8 4 8 6 7 5 8 9 4 6 6 6 7 7 5 5 4 3 2 6 8 9 11 8 10 13 12 11 12 11 11 10 11 10 8 9 9 9 9 7 6 6 6 5 4 3 3 2 1 1 1 1 2 2 2 2 3 3 3 4
4 2 4 12 11 11 14 8 5 7 4 3 7 4 2 2 5 2 11 8 4 5 6 8 9 11 5 7 8 7 10 10 6 4 0 1 3 2 2 1 3 4 7 7 7 7 9 9 11 14 15 11 11 12 11 10 10 10 8 9 9 9 9 8 7 8 6 6 5 4 4 3 3 2 1 1 1 1 2 2 3 3 3 4 3 3
2 2 3 2 7 10 9 8 10 7 5 7 3 9 5 3 2 10 5 3 7 5 7 10 11 7 6 10 9 9 8 7 1 0 0 0 2 1 4 4 4 3 2 3 6 8 7 7 6 4 4 7 11 11 11 10 11 9 10 8 10 9 7 8 9 8 6 6 5 5 4 3 2 2 1 0 0 1 3 2 2 3 3 3 3 5
8 8 7 9 3 1 3 9 6 11 2 9 8 3 2 5 6 3 2 2 3 3 8 8 9 6 8 8 11 11 8 2 4 4 3 3 4 4 6 7 7 8 8 6 6 6 9 9 9 10 11 9 10 10 10 11 11 9 8 11 10 7 7 8 7 7 6 5 5 4 3 2 1 0 0 0 1 1 3 3 2 4 3 4 4 5
4 5 3 4 6 6 8 10 8 4 5 9 11 7 5 9 6 6 4 1 2 4 5 6 6 10 10 10 10 10 8 5 2 4 4 5 6 5 3 4 4 4 4 5 5 10 9 10 8 8 7 8 8 9 9 12 13 10 11 11 7 8 7 7 6 6 6 5 4 4 2 1 1 0 1 1 1 2 3 3 3 3 3 3 3 4
7 9 8 7 4 8 8 4 1 2 7 10 8 6 8 10 5 6 5 4 4 5 5 5 8 7 10 11 8 8 6 6 8 5 6 8 7 7 8 10 11 11 11 11 9 8 8 11 12 10 8 8 9 8 9 8 12 11 12 8 8 9 9 8 7 7 5 5 4 3 2 1 1 1 1 2 1 2 3 4 2 4 3 3 3 3
3 2 0 2 6 1 2 4 0 0 2 7 6 3 3 5 4 3 5 4 5 6 8 8 8 8 9 8 7 4 6 6 7 7 7 7 5 6 5 4 4 4 4 4 4 8 8 4 4 7 10 8 9 9 7 8 8 14 9 8 8 8 9 9 8 6 6 5 4 3 2 1 1 1 2 2 2 3 3 3 3 3 4 3 3 3
5 2 1 4 3 2 6 1 5 6 3 5 10 9 4 3 4 4 4 6 7 5 6 7 3 3 6 6 10 10 9 8 8 9 6 5 7 7 8 9 8 9 10 11 11 9 8 7 8 10 11 12 10 10 8 8 6 5 6 10 9 9 9 8 8 6 5 5 5 3 3 2 2 2 2 2 2 3 3 3 3 3 3 3 4 4
6 5 4 8 2 5 7 4 5 2 2 3 5 6 8 11 8 5 7 6 5 3 4 5 3 3 6 6 10 10 11 9 8 9 7 9 10 9 9 10 10 7 9 8 6 10 8 10 12 13 12 13 12 10 9 8 8 6 7 8 9 9 9 8 7 7 6 6 4 4 3 3 3 3 3 2 2 3 3 3 3 4 5 4 4 4
4 5 5 3 5 5 4 7 2 3 5 6 7 8 10 9 6 5 8 9 6 5 5 5 6 7 8 11 8 9 8 10 9 11 11 9 8 7 9 11 10 11 10 9 9 12 14 14 14 14 15 14 10 10 10 9 7 7 9 9 9 10 10 8 6 5 5 5 4 4 3 3 3 3 3 3 3 3 4 4 4 4 6 7 6 7
5 7 3 4 3 3 9 11 6 2 6 9 10 13 13 12 9 9 5 5 6 8 8 8 9 6 7 7 6 8 10 11 10 8 10 10 10 11 10 10 9 9 9 9 8 11 11 11 14 14 14 11 9 11 10 9 8 7 7 8 9 9 10 8 7 6 6 5 4 4 3 3 3 3 3 3 3 4 5 7 11 10 7 6 10 16
9 12 8 7 8 8 8 6 8 11 9 9 9 7 9 8 7 10 11 12 11 10 9 8 8 6 8 11 8 10 11 12 13 8 9 9 11 11 11 10 10 8 9 8 9 9 12 13 12 10 11 10 9 10 11 10 9 9 8 9 9 9 9 9 7 6 5 5 5 5 5 4 4 4 4 3 3 3 3 6 7 11 13 14 12 13
Wind_Direction
103 142 176 202 216 212 202 201 210 139 144 138 124 165 232 224 273 275 268 250 127 316 242 245 257 239 265 263 307 317 64 84 92 93 82 69 65 61 61 60 55 49 39 351 12 14 9 4 5 4 3 1 19 25 14 31 35 38 39 50 46 31 35 50 54 51 49 59 68 55 54 61 44 44 49 47 37 42 40 39 43 43 44 41 46 42
73 180 232 223 222 189 201 204 223 309 68 205 240 231 273 183 259 253 264 8 298 167 296 287 310 274 255 263 308 331 143 71 94 102 102 98 89 75 72 62 47 45 46 20 22 14 13 9 8 5 7 3 26 11 17 32 29 40 43 55 51 40 51 51 57 74 67 61 64 85 71 78 58 49 48 49 41 42 44 43 43 43 42 44 43 39
135 206 234 231 162 117 99 151 177 200 238 194 213 237 279 259 268 284 269 347 299 140 256 310 288 278 281 233 26 31 71 48 358 153 145 132 110 94 76 76 62 56 42 31 26 20 17 11 8 6 6 16 19 16 27 18 36 36 43 43 47 44 51 52 57 66 74 72 69 81 89 80 83 65 69 69 59 50 53 46 42 42 42 44 45 42
251 280 237 218 137 149 331 116 129 109 88 173 113 161 233 218 10 299 289 11 28 155 272 44 316 282 284 79 53 27 74 86 41 82 73 84 104 96 83 75 81 66 47 40 26 19 12 13 10 11 16 8 12 24 24 21 35 40 43 41 46 46 45 53 51 73 81 85 88 81 86 79 75 84 80 77 60 53 50 45 40 41 39 41 47 41
204 197 28 141 156 166 214 177 156 187 245 269 192 218 247 213 222 194 251 300 291 1 77 277 293 289 259 247 115 38 39 84 36 82 70 57 66 89 90 65 54 67 52 55 40 27 20 22 20 17 8 4 29 25 24 19 30 43 47 48 52 52 50 46 43 51 81 98 88 90 88 88 92 71 61 59 50 46 51 53 39 35 34 39 43 41
283 257 121 85 98 141 173 235 218 169 241 299 226 213 221 213 234 250 342 341 6 334 344 97 326 307 326 333 342 15 22 71 347 93 77 76 67 65 65 66 55 50 42 62 45 25 25 32 23 28 25 36 37 33 17 13 36 47 53 55 58 62 56 52 48 49 64 64 81 89 81 69 61 58 42 45 48 44 44 53 51 44 37 38 42 39
205 349 158 192 165 154 173 211 235 151 188 64 271 198 215 219 218 189 137 93 293 172 340 19 193 268 330 316 293 305 226 153 39 107 144 90 86 86 95 77 55 44 42 31 32 20 39 17 51 49 42 34 50 33 8 31 46 55 60 60 59 61 61 52 53 53 74 79 73 73 77 83 76 87 68 61 49 60 63 63 56 55 47 42 45 41
113 48 90 88 140 168 177 245 234 156 134 232 243 144 141 151 177 207 162 181 228 264 299 35 134 245 308 281 316 296 238 224 227 230 197 159 177 154 124 100 86 73 55 51 28 18 1 12 22 51 35 38 42 22 31 53 50 56 57 59 61 59 57 50 55 61 50 77 75 83 83 77 80 79 91 75 69 62 61 61 52 51 50 47 45 44
139 162 156 148 139 149 202 209 179 160 149 218 203 143 155 170 190 146 148 174 220 50 285 312 238 328 258 262 345 181 275 229 221 210 207 203 201 166 150 149 139 139 119 118 96 42 10 18 27 25 42 28 36 25 41 49 54 63 64 67 66 61 55 48 50 62 58 68 74 80 86 85 72 79 80 81 69 68 56 68 54 54 51 51 50 48
300 170 208 157 141 202 223 256 170 167 191 249 127 91 83 74 66 119 111 122 341 85 262 248 182 226 275 276 331 347 278 267 209 198 204 211 194 183 176 178 163 150 131 148 172 150 58 27 37 29 56 49 32 33 44 55 66 67 74 72 69 61 55 54 58 64 67 66 73 78 77 84 84 81 82 71 68 64 53 64 53 47 47 41 43 42
287 309 161 117 186 203 132 35 143 182 114 125 110 78 37 40 48 36 65 92 68 277 242 225 207 187 288 258 222 156 216 197 120 151 208 210 205 204 196 172 171 162 155 160 154 111 76 37 60 56 69 61 52 49 61 68 69 76 78 83 75 65 66 57 65 67 68 67 64 79 82 85 90 85 89 83 65 59 53 59 53 50 50 47 47 46
11 14 119 261 88 98 99 77 32 93 134 121 137 120 87 353 10 32 342 33 144 267 263 320 263 142 186 288 280 228 256 194 165 180 188 195 197 195 183 182 174 166 169 164 153 135 112 91 76 77 83 80 79 75 70 75 73 77 83 90 85 68 64 62 65 73 74 78 77 79 86 87 84 82 75 72 72 56 65 60 61 54 51 43 42 38
263 223 228 6 212 129 111 84 20 36 51 88 86 52 107 253 37 292 16 264 204 210 275 340 330 332 242 230 236 218 210 197 220 201 190 186 189 182 182 179 173 169 170 177 166 149 146 136 131 117 119 109 93 90 87 81 84 83 82 88 91 77 68 66 67 74 76 79 75 80 82 85 86 85 88 91 93 89 86 79 74 57 57 48 48 37
279 317 137 204 76 217 138 140 161 61 190 115 158 141 94 60 48 253 276 241 302 290 282 243 344 256 257 281 265 233 245 222 261 268 247 193 183 180 178 171 168 178 182 182 172 170 163 160 147 138 138 130 121 104 98 97 93 96 92 89 92 94 78 79 75 74 80 71 75 70 84 87 95 96 97 98 101 94 85 82 75 64 59 59 57 48
346 340 264 152 215 149 186 180 179 159 160 201 109 147 183 143 156 243 190 224 235 196 277 273 67 233 123 239 343 241 281 287 263 247 250 197 181 167 155 155 166 173 190 182 179 179 175 172 168 162 157 146 132 124 114 109 107 106 101 100 100 101 91 89 88 85 83 85 80 82 82 89 90 98 95 81 76 83 88 72 75 65 57 58 52 53
200 220 267 322 229 107 178 253 115 100 62 237 170 86 90 232 142 225 204 156 247 335 342 205 211 185 185 286 292 302 293 331 331 223 164 154 144 144 155 174 184 188 186 182 182 184 189 182 174 166 162 155 143 133 127 120 125 116 115 111 107 113 118 106 98 89 93 91 88 74 78 74 78 81 85 89 81 73 67 63 63 61 57 54 51 56
36 289 324 337 62 122 185 141 245 141 191 206 112 200 205 154 123 74 60 113 91 60 252 139 298 283 304 318 314 337 30 343 3 166 159 157 157 164 183 190 194 192 186 187 189 184 183 177 180 174 168 162 149 143 146 149 147 138 131 126 121 118 111 109 109 116 111 103 92 77 72 77 85 90 92 96 86 78 72 69 58 57 54 59 49 41
138 234 304 82 193 296 216 234 117 27 148 101 171 236 178 165 107 128 249 5 51 221 275 93 222 275 58 282 327 350 317 278 276 195 183 165 168 186 197 196 197 193 191 190 188 183 180 177 174 175 182 174 162 159 158 160 161 148 140 138 131 128 125 134 135 137 145 126 112 117 119 119 103 87 70 60 56 43 46 37 35 30 29 24 18 20
109 303 292 277 177 278 18 142 46 351 50 144 181 217 127 244 75 356 83 304 263 250 272 267 240 256 189 236 85 251 222 225 205 205 181 191 193 201 201 204 200 191 187 188 185 178 179 179 181 178 180 181 176 175 169 162 161 156 149 142 137 140 146 148 142 137 127 133 126 112 81 67 60 57 59 57 61 60 65 59 49 45 39 31 27 23
74 146 284 296 149 226 16 96 193 182 350 37 79 41 357 102 159 127 191 188 132 284 313 278 309 273 178 222 183 213 209 201 180 190 210 203 198 197 199 197 195 194 190 182 182 183 181 182 180 180 179 179 181 178 179 170 162 164 156 146 144 129 125 128 136 140 118 111 96 80 71 63 69 70 74 76 84 77 66 56 47 37 31 31 28 23
160 133 210 280 277 96 180 174 203 161 150 67 69 346 26 40 240 99 1 143 185 186 205 284 288 272 235 201 176 208 204 190 177 198 207 208 209 207 200 194 193 190 185 183 181 179 179 180 183 186 188 184 181 179 170 168 168 163 144 152 153 145 147 129 129 114 103 95 85 92 88 92 93 87 84 76 61 62 55 48 47 38 43 39 41 28
103 153 180 229 158 218 235 296 235 175 163 161 161 195 168 120 160 156 257 71 141 143 232 221 258 279 256 184 209 203 237 184 205 198 201 208 209 204 201 199 188 186 185 179 183 178 177 178 182 188 189 188 179 178 174 174 152 147 163 155 146 131 122 129 130 115 108 100 110 98 95 83 76 74 66 64 60 69 74 67 59 53 45 48 25 32
157 135 103 186 201 211 247 304 307 313 109 158 153 226 165 153 118 158 240 235 33 253 96 200 310 266 310 219 218 236 234 236 237 231 230 223 224 199 191 123 117 148 166 180 179 176 185 190 192 190 188 185 183 178 175 166 164 165 159 149 146 129 127 128 123 119 123 110 96 92 89 85 74 69 70 80 85 90 83 70 58 45 43 32 26 26
83 71 38 294 302 317 11 211 124 90 91 76 14 82 116 186 191 197 213 185 179 261 251 309 235 267 261 170 254 259 255 256 262 216 217 183 173 180 175 164 165 160 175 185 180 184 190 191 192 189 191 188 187 184 175 170 163 152 150 144 139 126 137 129 126 127 112 107 98 88 81 75 80 92 112 109 106 100 83 70 59 42 41 34 24 37
70 270 109 350 342 337 344 353 6 345 51 144 209 234 215 177 73 137 93 84 236 205 221 127 259 263 310 6 321 6 343 277 249 239 189 192 196 184 182 181 179 181 185 187 179 181 181 187 193 197 193 188 185 178 171 171 164 154 144 147 134 128 132 122 126 116 108 104 97 88 95 112 125 134 127 113 102 93 80 66 56 41 41 37 32 38
123 166 137 173 212 236 240 197 261 259 220 236 238 288 253 195 181 102 246 187 230 226 189 195 251 258 292 336 338 347 313 287 257 232 226 209 200 195 190 195 197 190 192 177 170 178 191 194 196 196 187 184 187 179 174 172 162 149 138 130 136 135 128 121 120 110 105 101 104 118 139 145 140 131 123 116 108 94 79 68 53 40 42 38 26 28
153 203 183 195 206 236 246 164 228 107 71 178 251 191 230 203 217 210 153 188 231 245 230 235 245 273 277 240 242 248 240 220 228 236 216 221 218 208 207 205 203 199 187 182 182 186 189 196 199 182 181 190 189 180 177 167 158 143 135 125 126 122 123 125 114 108 106 114 124 149 159 150 143 137 130 117 101 91 80 63 49 39 36 25 28 25
92 200 223 210 219 237 241 235 194 161 234 222 221 247 229 211 184 183 198 238 228 338 259 248 249 254 257 258 205 232 236 227 238 218 221 225 217 208 203 201 184 169 180 184 188 191 197 195 179 185 190 185 189 175 167 163 160 156 153 146 142 133 127 121 115 113 118 130 149 165 168 153 140 128 115 107 98 81 64 51 40 33 26 27 27 24
148 219 222 182 233 245 239 246 172 171 218 234 228 235 242 229 191 200 219 239 229 227 253 261 256 227 256 253 207 211 209 210 231 227 217 222 230 203 182 184 193 200 197 191 198 195 190 188 189 189 190 189 179 174 166 152 143 143 126 118 130 134 128 125 120 122 131 151 175 184 167 147 135 121 101 86 74 59 49 44 36 27 27 28 25 18
114 249 242 159 232 252 254 240 201 206 223 228 235 238 239 239 231 206 232 236 230 242 251 262 266 265 258 251 176 218 230 204 234 235 111 185 218 202 199 208 207 208 202 202 198 193 194 196 190 192 191 186 180 171 163 157 162 162 154 150 149 139 136 128 131 134 154 177 188 175 151 129 106 87 77 69 64 56 46 41 27 24 25 24 19 10
139 270 104 121 232 255 260 175 162 192 195 243 255 253 247 244 239 220 239 245 245 254 254 264 270 267 255 153 196 246 261 236 264 236 219 223 211 204 206 212 212 204 204 202 194 196 199 199 198 194 192 188 182 178 172 169 164 158 152 150 150 147 143 136 138 150 165 185 183 153 122 101 90 85 77 67 63 50 42 30 21 21 20 17 10 5
150 257 70 116 217 265 247 146 201 183 268 250 264 258 253 250 250 238 238 230 223 234 240 242 250 255 250 170 175 203 201 189 214 225 220 222 213 208 209 212 201 200 197 195 195 198 199 199 197 195 195 191 185 174 169 166 167 160 158 153 152 145 137 141 144 156 179 188 152 128 117 109 97 84 75 68 53 50 39 27 21 18 16 4 3 360
179 149 165 140 223 250 277 123 149 95 297 290 249 245 247 244 238 251 255 226 217 217 221 227 239 251 216 180 167 224 203 227 238 233 228 228 218 206 206 197 196 198 198 199 200 202 207 205 202 198 196 193 182 177 181 167 157 168 156 151 151 132 140 144 149 163 178 165 139 130 119 103 92 89 86 69 65 56 37 33 18 15 6 1 349 337
137 164 192 173 226 248 90 95 106 151 219 234 263 147 199 228 232 239 244 237 229 190 212 213 250 192 124 148 186 212 210 216 216 235 192 195 191 204 224 211 210 209 210 210 205 206 208 205 206 203 195 188 187 181 164 167 161 145 137 136 134 140 141 145 160 170 168 149 139 133 116 102 96 94 89 74 65 48 34 26 15 359 340 336 334 333
175 189 203 162 209 219 129 103 215 219 236 261 41 327 4 242 223 231 240 251 224 191 237 270 244 181 205 196 206 227 234 254 258 251 272 234 188 195 199 211 216 214 216 213 212 213 210 204 195 181 176 181 175 160 147 146 133 127 130 139 137 144 141 156 158 168 160 146 145 138 113 102 101 103 89 72 61 48 28 11 349 341 339 336 325 320
187 184 145 219 157 48 125 196 235 244 265 297 250 328 289 66 121 83 308 267 194 200 196 220 243 234 220 228 247 257 218 258 305 250 231 240 203 199 209 227 222 204 209 209 206 208 197 192 190 189 190 163 147 155 157 149 141 142 143 136 141 143 150 152 162 160 151 152 163 134 112 112 122 108 93 74 62 51 1 348 330 327 323 316 303 286
181 154 185 237 170 227 200 199 240 324 317 269 294 215 169 174 179 169 217 275 209 203 176 203 233 244 241 236 183 118 33 19 330 283 217 228 229 215 211 222 225 230 222 226 194 211 200 195 191 176 141 149 155 152 159 147 147 143 141 147 150 147 154 157 161 167 163 167 149 123 125 133 127 117 97 92 64 21 336 327 314 315 308 304 299 301
219 195 191 218 227 194 202 233 253 216 242 239 216 111 31 146 122 156 106 282 273 228 182 176 216 238 242 183 122 124 83 36 303 281 264 232 222 224 244 256 293 218 193 189 152 151 148 144 126 134 147 149 157 158 146 150 149 146 148 154 152 156 161 167 174 167 171 159 139 140 143 136 124 118 115 109 93 284 299 294 292 284 295 301 304 299
347 47 176 212 216 207 212 223 222 235 247 148 203 195 262 232 135 123 63 281 263 197 203 185 217 244 231 192 168 137 92 197 254 257 261 251 241 211 218 234 221 216 200 183 171 159 153 144 141 140 140 149 159 165 153 152 149 148 157 162 164 164 167 182 171 173 171 153 144 144 139 131 119 121 133 145 209 236 264 284 281 292 289 271 274 282
163 141 183 258 216 218 226 234 234 237 241 274 179 214 213 162 105 58 308 276 268 226 196 164 209 229 237 176 144 147 158 199 251 256 234 216 210 195 191 203 197 199 197 169 142 151 142 132 122 138 156 173 176 154 156 154 157 160 160 167 161 170 186 188 178 168 144 134 138 136 129 125 125 135 144 176 210 249 256 275 287 279 291 291 285 288
175 255 209 216 224 229 233 255 281 267 244 158 173 163 197 187 76 127 233 234 237 205 206 194 206 221 182 147 163 171 221 203 203 222 281 109 114 182 227 193 186 182 176 169 160 140 145 163 165 171 181 178 158 157 160 160 156 167 168 161 167 193 193 169 154 147 144 136 133 133 129 125 138 142 171 162 212 253 284 282 284 293 284 285 289 286
335 94 328 321 234 229 230 249 242 273 234 152 264 152 175 95 229 223 238 195 159 208 207 195 208 213 159 176 185 209 225 219 171 6 24 224 187 214 182 162 112 85 71 129 150 153 152 162 165 148 146 155 158 163 164 164 167 167 165 168 193 195 153 152 149 140 140 143 139 135 129 133 121 136 174 191 161 255 278 265 268 277 280 278 286 289
192 140 211 208 218 41 176 244 242 247 212 121 140 53 304 147 237 193 196 251 201 197 173 210 211 213 171 204 212 217 237 229 184 218 230 230 232 199 176 174 176 174 164 147 164 189 165 166 182 188 178 162 164 167 172 167 168 171 170 189 196 156 154 151 145 144 144 139 138 140 141 139 141 172 130 227 219 239 277 286 291 286 280 285 285 284
209 114 244 256 192 179 194 211 209 228 127 179 141 185 208 206 188 159 135 243 229 170 194 190 219 205 199 197 208 227 236 240 285 234 232 244 234 237 211 203 187 179 190 207 193 181 181 186 182 174 165 168 170 174 175 175 173 176 182 198 148 149 146 148 144 143 141 144 145 136 140 152 141 167 204 221 249 255 269 285 286 282 273 274 274 287
207 191 181 191 213 160 199 211 262 194 165 197 195 195 198 212 186 183 160 189 178 235 183 183 221 207 200 206 215 208 221 220 225 211 194 227 216 206 195 200 193 194 194 193 198 185 188 191 184 172 172 180 180 185 185 189 177 173 191 179 151 159 154 149 146 142 149 150 150 146 167 128 166 211 230 243 206 247 262 278 269 280 264 264 277 270
288 207 117 81 256 240 257 186 202 15 253 218 245 212 204 241 236 151 184 209 241 204 174 190 219 201 200 204 198 237 211 223 214 233 227 237 222 228 231 235 235 229 200 170 165 177 190 171 154 173 182 188 191 190 190 198 181 182 194 149 163 155 151 146 145 153 161 158 152 167 142 146 287 251 241 246 220 215 234 243 258 263 276 266 261 259
244 140 138 201 269 131 260 49 171 208 220 213 219 243 253 254 232 187 202 220 236 202 205 231 224 187 195 178 198 211 224 221 222 235 222 227 228 228 215 216 219 203 194 196 199 158 166 171 173 188 190 196 197 193 195 195 209 188 141 165 156 149 145 147 152 155 158 162 160 147 146 164 232 257 246 231 239 233 235 231 233 246 265 254 260 260
303 170 155 224 196 159 232 226 230 287 270 255 239 244 252 249 236 205 218 227 232 210 196 211 165 197 154 182 208 208 231 227 213 234 225 219 221 219 218 218 219 214 219 208 172 176 175 183 192 194 193 203 196 191 189 192 192 170 157 154 153 145 142 148 160 164 169 168 162 164 168 178 214 223 242 237 218 245 257 243 226 232 242 239 244 248
181 108 217 171 168 263 299 281 240 9 309 268 242 234 237 241 243 231 221 233 235 233 235 223 204 202 182 214 200 206 226 244 219 221 222 224 223 222 222 221 216 214 207 183 188 179 188 193 198 201 197 206 185 181 184 190 179 170 165 157 151 149 147 156 157 153 154 159 147 173 178 186 200 209 222 254 255 244 230 248 265 250 258 246 241 234
85 234 186 98 99 192 203 229 144 161 254 252 229 226 229 232 226 240 242 239 233 229 226 223 239 226 218 227 199 192 212 237 234 215 228 229 223 222 221 223 223 217 212 204 185 195 204 203 201 199 202 203 174 181 184 181 177 176 167 154 154 152 152 153 152 155 170 164 171 186 184 198 208 211 216 230 246 268 283 255 255 258 253 249 255 255
192 219 141 172 163 227 229 219 192 204 222 230 233 224 217 223 206 221 235 233 235 227 221 212 235 244 236 240 213 201 218 226 238 212 223 235 235 227 222 217 216 214 213 187 180 200 205 209 205 204 207 198 175 180 182 180 176 174 169 160 158 158 155 151 154 165 170 172 190 189 185 190 204 208 214 220 226 236 258 304 292 284 283 283 280 276